Location: Newark
(45.8667°N, 9.7333°E)
Time: 02:33:42
(UTC+00:00)

Transit 4A - Pass Details

Date: 28 January 2020
Orbit: 872 x 973 km, 66.8° (Epoch: 19 February)

Event Time Altitude Azimuth Distance (km) Brightness Sun altitude
Rises 13:45:19 0° 327° (NNW) 3,472 10.7 19.3°
Reaches altitude 10° 13:47:48 10° 328° (NNW) 2,529 10.0 19.1°
Maximum altitude 13:53:40 85° 58° (ENE) 885 8.1 18.5°
Drops below altitude 10° 13:59:32 10° 147° (SSE) 2,538 10.5 17.9°
Sets 14:02:02 0° 147° (SSE) 3,485 11.2 17.7°
